SBIRS GEO-2 (USA 241)

Last updated on Sun Jun 21 2026 00:03:05 GMT+0000 (Coordinated Universal Time)

1 39120U 13011A 26171.16820361 -.00000293 00000+0 00000+0 0 9998 2 39120 4.4956 52.5092 0002140 29.8679 196.7596 1.00271628 48569
UTC large
Height (km)
Speed (km/s)
/
Latitude / Longitude
Inclination (degrees)
Orbital Period (minutes)
Azimuth
Elevation
Range (km)
Doppler Factor

Next 0 passes for location: London (51.5072 / 0.1276)

No passes found over London.
SBIRS GEO-2 (USA 241)